Regional Weather Roundup
Issued by NWS Upton, NY

Current Version | Previous Version | Graphics & Text | Print | Product List | Glossary Off
Versions: 1 2 3 4 5 6 7 8 9 10 11 12 13 14 15 16 17 18 19 20 21 22 23 24 25 26 27

000
ASUS41 KOKX 272008
RWROKX

REGIONAL WEATHER ROUNDUP
NATIONAL WEATHER SERVICE NEW YORK NY
300 PM EST MON FEB 27 2017

NOTE: "FAIR" INDICATES FEW OR NO CLOUDS BELOW 12,000 FEET WITH NO
SIGNIFICANT WEATHER AND/OR OBSTRUCTIONS TO VISIBILITY.

NYZ071-072-176-178-NJZ106-104-272100-
NEW YORK CITY METRO AREA

CITY           SKY/WX    TMP DP  RH WIND       PRES   REMARKS
Central Park   CLOUDY    53  20  27 SW5       30.37F
Wall St Helipt CLOUDY    52  30  43 SW5       30.37F
LaGuardia APRT CLOUDY    52  30  43 S15       30.35F
Kennedy INTL   CLOUDY    48  37  65 S23       30.38F
Breezy Point     N/A     45 N/A N/A S14         N/A
Newark/Liberty CLOUDY    54  19  25 SW16G22   30.36S
Teterboro      PTSUNNY   54  22  28 S14G23    30.34F
$$

NYZ177-179-078>081-272100-
LONG ISLAND NEW YORK

CITY           SKY/WX    TMP DP  RH WIND       PRES   REMARKS
Jones Beach      N/A     45 N/A N/A S16G23      N/A
Matinecock PT    N/A     50 N/A N/A S8G14       N/A
Farmingdale    CLOUDY    48  31  51 SW18G25   30.38F
MacArthur/ISP  CLOUDY    48  30  49 SW21G30   30.37F
Shirley          N/A     47  32  56 S13       30.39F
Westhampton    CLOUDY    46  33  60 SW12G20   30.40S
Southampton      N/A     45  37  76 SW12      30.36S
Bridgehampton  NOT AVBL
East Hampton     N/A     45  32  61 SW13      30.38S
Montauk          N/A     47  31  53 SW14G26   30.39S
$$

NYZ052-065-067-272100-
HUDSON VALLEY

CITY           SKY/WX    TMP DP  RH WIND       PRES   REMARKS
White Plains   CLOUDY    51  18  27 S8        30.33S
Newburgh       MOSUNNY   50  21  32 SW15G21   30.32F
Montgomery     SUNNY     51  24  34 SW21      30.29S
Poughkeepsie   SUNNY     52  18  26 SW15G24   30.31R
Albany         MOSUNNY   53  21  28 W14G21    30.25F
$$

NJZ001-105-106-008-010-013-015-019>022-104-272100-
NEW JERSEY

CITY           SKY/WX    TMP DP  RH WIND       PRES   REMARKS
Newark/Liberty CLOUDY    54  19  25 SW16G22   30.36S
Teterboro      PTSUNNY   54  22  28 S14G23    30.34F
Caldwell       CLOUDY    53  21  28 SW9       30.35F
Somerville     PTSUNNY   53  22  29 SW8       30.34S
Linden         NOT AVBL
Sussex         MOSUNNY   50  23  34 SW13G20   30.33S
Andover          N/A     49  24  37 SW9       30.34S
Trenton        CLOUDY    53  25  33 SW15G21   30.36S
Millville      CLOUDY    52  36  54 S8        30.39S
Atlantic City  PTSUNNY   50  34  54 S14       30.40F
Wrightstown    PTSUNNY   54  23  29 SW14      30.35S
Toms River     CLOUDY    53  33  46 S13       30.38F
Belmar         CLOUDY    51  34  52 S12G18    30.38S
$$

PAZ047>061-062-071-272100-
EASTERN PENNSYLVANIA

CITY           SKY/WX    TMP DP  RH WIND       PRES   REMARKS
Philadelphia   CLOUDY    54  29  38 SW9       30.38F
Allentown      CLOUDY    51  28  41 W7        30.35S
Scranton       PTSUNNY   50  21  32 W8        30.29F
$$

CTZ002-004>006-009-010-012-RIZ004-006-007-MAZ004-011-015-272100-
SOUTHERN NEW ENGLAND
 IN CT

CITY           SKY/WX    TMP DP  RH WIND       PRES   REMARKS
Bradley INTL   MOSUNNY   54  15  21 SW21G35   30.28F
Hartford       SUNNY     53  17  24 SW14G23   30.31F
Danbury        PTSUNNY   50  20  30 SW12      30.33S
Wtrbury/Oxford PTSUNNY   50  18  27 SW9G21    30.32F
Bridgeport     MOSUNNY   49  28  44 SW13      30.35F
Meriden        MOSUNNY   52  21  29 VRB7      30.32F
New Haven      PTSUNNY   47  28  47 SW10      30.35F
Chester          N/A     48  21  34 SW14      30.33F
Groton         MOSUNNY   45  30  55 SW13      30.35F
Wilimantic     MOSUNNY   52  20  28 SW20G25   30.31F

 IN RI

CITY           SKY/WX    TMP DP  RH WIND       PRES   REMARKS
Providence     CLOUDY    51  19  28 SW13      30.32S
Block Island   MOSUNNY   46  35  65 SW22G29   30.37F
Westerly       PTSUNNY   47  28  47 SW14      30.36F
 IN MA

CITY           SKY/WX    TMP DP  RH WIND       PRES   REMARKS
Boston         PTSUNNY   54  16  22 W22G33    30.26S
Worcester      SUNNY     49  13  23 SW20G30   30.24S
Westfield      SUNNY     53  18  25 W20G28    30.27F
Provincetown   PTSUNNY   44  34  67 SW22G30   30.30S
Nantucket      SUNNY     45  36  70 SW22      30.38S
$$

ANZ330-335-338-340-345-350-353-355-272100-
COASTAL MARINE OBSERVATIONS


STATION/POSITION TIME  SKY/WX   TEMP    WIND        PRES    VSBY  WAVE
                                AIR SEA DIR/SP/G                  HT/PER
                 (UTC)          (F)     (DEG/KT/KT) (MB)    (MI)  (FT/S)
NY HARB ENTRANCE NOT AVBL
20 S FIRE ISLAND 1950            44 43  210/ 17/ 19 1029.3          4/ 5
GREAT SOUTH BAY  NOT AVBL
23 SSW MONTAUK P 1850            45 46              1029.5          5/ 5
15 E BARNEGAT LI 1930               43                N/A           3/ 9
HUDSON CANYON    1850               47              1030.6          3/ 8
KINGS POINT      1942            47 41              1027.9
EXECUTION ROCKS  NOT AVBL
CENTRAL LI SOUND 1930            43     250/  6/  6   N/A           1/ 3
EASTERN LI SOUND NOT AVBL
ROBBINS REEF     1948            50     180/ 11/ 18 1028.2
$$


>>>>>>>>>>>>>>>>>>>>>>>>>>>> KEY <<<<<<<<<<<<<<<<<<<<<<<<<<<
>                                                          <
>     SKY/WX - Sky Condition/Present Weather               <
>     TMP    - Temperature in Fahrenheit                   <
>     DP     - Dew Point in Fahrenheit                     <
>     RH     - Relative Humidity in Percent                <
>     WIND   - Direction (from) and Speed in MPH           <
>     PRES   - Mean Sea Level Pressure (inches of Hg)      <
>     WCI    - Wind Chill Index                            <
>     VSB    - VISIBILITY IN MILES                         <
>     HX     - HEAT INDEX                                  <
>     TC     - TEMPERATURE IN CELSIUS                      <
>     VRB    - VARIABLE WIND DIRECTION                     <
>                                                          <
>>>>>>>>>>>>>>>>>>>>>>>>>>>> KEY <<<<<<<<<<<<<<<<<<<<<<<<<<<




USA.gov is the U.S. government's official web portal to all federal, state and local government web resources and services.